TimeAKST,TemperatureF,Dew PointF,Humidity,Sea Level PressureIn,VisibilityMPH,Wind Direction,Wind SpeedMPH,Gust SpeedMPH,PrecipitationIn,Events,Conditions,WindDirDegrees,DateUTC
12:53 AM,24.1,23.0,96,29.51,10.0,South,3.5,-,N/A,,Scattered Clouds,170,2013-02-15 09:53:00
1:06 AM,24.8,23.0,93,29.50,10.0,Calm,Calm,-,N/A,,Mostly Cloudy,0,2013-02-15 10:06:00
1:43 AM,30.2,26.6,86,29.51,10.0,SSE,6.9,-,N/A,,Overcast,160,2013-02-15 10:43:00
1:53 AM,30.0,27.0,88,29.52,10.0,SSE,5.8,-,N/A,,Overcast,160,2013-02-15 10:53:00
2:10 AM,30.2,26.6,86,29.52,10.0,South,6.9,-,N/A,,Overcast,170,2013-02-15 11:10:00
2:40 AM,30.2,26.6,86,29.53,10.0,South,11.5,-,N/A,,Overcast,180,2013-02-15 11:40:00
3:53 AM,30.0,24.1,79,29.56,10.0,South,10.4,-,N/A,,Overcast,180,2013-02-15 12:53:00
4:53 AM,28.9,24.1,82,29.57,10.0,SSW,17.3,-,N/A,,Mostly Cloudy,200,2013-02-15 13:53:00
5:53 AM,28.9,24.1,82,29.59,10.0,SSW,12.7,-,N/A,,Overcast,200,2013-02-15 14:53:00
6:53 AM,28.0,23.0,81,29.60,10.0,SSW,12.7,-,N/A,,Overcast,200,2013-02-15 15:53:00
7:53 AM,28.0,21.9,78,29.62,10.0,South,6.9,-,N/A,,Overcast,180,2013-02-15 16:53:00
8:53 AM,27.0,21.0,78,29.65,10.0,South,8.1,-,N/A,,Mostly Cloudy,180,2013-02-15 17:53:00
9:53 AM,26.1,19.9,78,29.67,10.0,South,9.2,-,N/A,,Overcast,190,2013-02-15 18:53:00
10:53 AM,28.0,21.0,75,29.69,10.0,South,6.9,-,N/A,,Overcast,170,2013-02-15 19:53:00
11:35 AM,28.4,21.2,74,29.69,10.0,South,8.1,-,N/A,,Overcast,180,2013-02-15 20:35:00
11:53 AM,28.9,21.0,72,29.70,10.0,South,10.4,-,N/A,,Overcast,170,2013-02-15 20:53:00
12:53 PM,30.0,19.9,66,29.73,10.0,South,8.1,-,N/A,,Overcast,190,2013-02-15 21:53:00
1:53 PM,30.0,24.1,79,29.73,10.0,SSW,9.2,-,N/A,,Overcast,200,2013-02-15 22:53:00
2:33 PM,28.4,19.4,69,29.75,10.0,WNW,8.1,-,N/A,,Scattered Clouds,290,2013-02-15 23:33:00
2:53 PM,28.0,19.0,69,29.76,10.0,WNW,8.1,-,N/A,,Partly Cloudy,290,2013-02-15 23:53:00
3:53 PM,27.0,18.0,69,29.79,10.0,West,3.5,-,N/A,,Clear,270,2013-02-16 00:53:00
4:53 PM,25.0,12.9,60,29.81,10.0,West,3.5,-,N/A,,Clear,280,2013-02-16 01:53:00
5:53 PM,23.0,9.0,55,29.84,10.0,Calm,Calm,-,N/A,,Clear,0,2013-02-16 02:53:00
6:53 PM,19.0,8.1,62,29.85,10.0,Calm,Calm,-,N/A,,Clear,0,2013-02-16 03:53:00
7:53 PM,10.0,3.0,73,29.85,10.0,North,5.8,-,N/A,,Clear,350,2013-02-16 04:53:00
8:53 PM,14.0,7.0,74,29.87,10.0,Calm,Calm,-,N/A,,Clear,0,2013-02-16 05:53:00
9:53 PM,9.0,6.1,88,29.88,10.0,SSE,8.1,-,N/A,,Clear,160,2013-02-16 06:53:00
10:53 PM,16.0,10.0,77,29.91,10.0,SSE,3.5,-,N/A,,Clear,160,2013-02-16 07:53:00
11:53 PM,3.0,-0.0,87,29.93,10.0,Calm,Calm,-,N/A,,Clear,0,2013-02-16 08:53:00